DW8366 Lake Hamana JP current weather conditions

sailwx.info

Wind from 246 at 3 knots gusting 9

Air temperature 7.8° C
Dewpoint 1.8° C

Last reported at 2018-Dec-17 18:10 UTC.
Time now 2018-Dec-17 18:51 UTC

Location: N 34°43' E 137°32'.
View on Google Maps.

See reports from other nearby stations

  
Tides and Currents Weather Stations Pressure Air Temp Water Temp Dewpoint Dewpoint Depression Visibility Wind Speed Wind Dir Waves Ship Positions
date/time (UTC)wind fromknots sea level pressurealtimeterstation pressurevisibilityair tempwater tempwave heightnotes
2018-Dec-17 18:10 246 3 gusting 9 7.8
2018-Dec-17 18:00 288 1 gusting 6 7.8
2018-Dec-17 17:35 253 1 gusting 8 7.8
2018-Dec-17 17:15 219 1 gusting 6 8.3
2018-Dec-17 17:10 238 3 gusting 6 8.3
2018-Dec-17 17:05 268 3 gusting 6 8.3
2018-Dec-17 16:55 262 2 gusting 7 8.3
2018-Dec-17 16:50 256 1 gusting 7 8.3
2018-Dec-17 16:45 262 3 gusting 7 8.3
2018-Dec-17 16:35 282 3 gusting 7 8.3
2018-Dec-17 16:30 228 2 gusting 10 8.3
2018-Dec-17 16:25 240 1 gusting 10 8.3
2018-Dec-17 16:20 291 3 gusting 9 8.3
2018-Dec-17 16:05 279 1 gusting 9 8.9
2018-Dec-17 16:00 274 6 gusting 13 8.9
2018-Dec-17 15:55 270 6 gusting 13 8.9
2018-Dec-17 15:50 258 2 gusting 6 8.9
2018-Dec-17 15:35 268 4 gusting 9 8.9
2018-Dec-17 15:30 240 4 gusting 13 8.9
2018-Dec-17 15:25 237 1 gusting 13 8.9
2018-Dec-17 15:20 270 3 gusting 13 8.9
2018-Dec-17 15:15 267 6 gusting 10 8.9
2018-Dec-17 15:10 254 0 gusting 9 8.9
2018-Dec-17 15:05 249 5 gusting 9 8.9
2018-Dec-17 14:55 228 1 gusting 3 8.9
2018-Dec-17 14:50 284 1 gusting 4 8.9
2018-Dec-17 14:35 312 1 gusting 6 8.9
2018-Dec-17 14:30 143 1 gusting 6 8.9
2018-Dec-17 14:25 073 1 gusting 5 8.9
2018-Dec-17 14:20 356 3 gusting 4 8.9
2018-Dec-17 14:10 308 1 gusting 6 8.9
2018-Dec-17 13:55 279 1 gusting 4 8.9
2018-Dec-17 13:50 208 2 gusting 6 8.9
2018-Dec-17 13:40 258 2 gusting 6 8.9
2018-Dec-17 13:35 004 1 gusting 6 8.9
2018-Dec-17 13:25 245 1 gusting 3 9.4
2018-Dec-17 13:20 310 1 gusting 3 9.4
2018-Dec-17 13:15 231 1 gusting 6 9.4
2018-Dec-17 13:10 236 1 gusting 6 9.4
2018-Dec-17 13:05 254 2 gusting 6 9.4
2018-Dec-17 13:00 150 1 gusting 6 10.0
2018-Dec-17 12:55 212 1 gusting 5 10.0
2018-Dec-17 12:50 266 0 gusting 5 10.0
2018-Dec-17 12:40 144 1 gusting 5 10.0
2018-Dec-17 12:25 273 2 gusting 7 10.0
2018-Dec-17 12:15 037 1 gusting 6 10.0
2018-Dec-17 12:10 344 1 gusting 6 10.0
2018-Dec-17 11:55 272 1 gusting 5 10.0
2018-Dec-17 11:50 262 0 gusting 6 10.0
2018-Dec-17 11:45 236 1 gusting 6 10.0
2018-Dec-17 11:40 355 1 gusting 11 10.0
2018-Dec-17 11:30 262 2 gusting 5 10.0
2018-Dec-17 11:25 251 1 gusting 9 10.0
2018-Dec-17 11:20 226 2 gusting 9 10.0
2018-Dec-17 11:15 204 3 gusting 9 10.0
2018-Dec-17 11:10 250 4 gusting 9 10.0
2018-Dec-17 11:00 264 3 gusting 9 10.0
2018-Dec-17 10:55 329 2 gusting 9 10.0
2018-Dec-17 10:50 270 1 gusting 10 10.0
2018-Dec-17 10:45 259 3 gusting 10 10.0
2018-Dec-17 10:30 273 1 gusting 9 10.0
2018-Dec-17 10:25 249 1 gusting 5 10.6
2018-Dec-17 10:05 269 1 gusting 5 10.6
2018-Dec-17 09:50 301 3 gusting 6 10.6
2018-Dec-17 09:45 214 3 gusting 9 10.6
2018-Dec-17 09:40 216 2 gusting 10 10.6
2018-Dec-17 09:25 264 1 gusting 6 10.6
2018-Dec-17 09:20 278 2 gusting 6 10.6
2018-Dec-17 09:15 274 2 gusting 6 10.6
2018-Dec-17 09:10 277 2 gusting 6 10.6
2018-Dec-17 09:05 271 1 gusting 6 10.6
2018-Dec-17 09:00 241 3 gusting 8 10.6
2018-Dec-17 08:55 224 1 gusting 8 10.6
2018-Dec-17 08:50 254 1 gusting 5 10.6
2018-Dec-17 08:45 284 0 gusting 6 10.6
2018-Dec-17 08:40 291 1 gusting 6 11.1
2018-Dec-17 08:35 274 3 gusting 7 11.1
2018-Dec-17 08:30 227 1 gusting 7 11.1
2018-Dec-17 08:25 229 3 gusting 7 11.1
2018-Dec-17 08:20 236 2 gusting 7 11.1
2018-Dec-17 08:10 238 1 gusting 6 11.1
2018-Dec-17 08:05 221 2 gusting 8 11.7
2018-Dec-17 07:50 257 3 gusting 10 11.7
2018-Dec-17 07:40 235 2 gusting 6 11.7
2018-Dec-17 07:35 270 1 gusting 6 12.2
2018-Dec-17 07:25 103 1 gusting 6 12.2
2018-Dec-17 07:20 217 1 gusting 6 12.8
2018-Dec-17 07:15 208 1 gusting 6 12.8
2018-Dec-17 07:10 041 1 gusting 9 13.3
2018-Dec-17 07:05 036 1 gusting 9 13.3
2018-Dec-17 06:50 230 1 gusting 8 13.9
2018-Dec-17 06:45 262 1 gusting 13 14.4
2018-Dec-17 06:35 272 1 gusting 11 15.0
2018-Dec-17 06:30 317 2 gusting 11 15.0
2018-Dec-17 06:25 272 4 gusting 11 15.6
2018-Dec-17 06:20 245 1 gusting 10 15.6
2018-Dec-17 06:15 252 3 gusting 8 15.6
2018-Dec-17 06:10 260 4 gusting 8 16.1
2018-Dec-17 06:05 291 4 gusting 13 16.1
2018-Dec-17 06:00 326 3 gusting 13 16.7
2018-Dec-17 05:45 053 2 gusting 12 17.2
2018-Dec-17 05:40 029 3 gusting 9 17.2
2018-Dec-17 05:35 163 3 gusting 10 17.2
2018-Dec-17 05:25 177 4 gusting 13 17.8
2018-Dec-17 05:20 210 4 gusting 13 17.8
2018-Dec-17 05:15 270 3 gusting 13 17.2
2018-Dec-17 05:10 295 3 gusting 13 17.2
2018-Dec-17 05:05 316 5 gusting 13 17.2
2018-Dec-17 05:00 234 7 gusting 13 17.8
2018-Dec-17 04:55 252 3 gusting 13 17.8
2018-Dec-17 04:50 354 3 gusting 7 17.8
2018-Dec-17 04:45 246 3 gusting 13 17.8
2018-Dec-17 04:40 247 3 gusting 13 17.8
2018-Dec-17 04:30 204 3 gusting 10 17.2
2018-Dec-17 04:25 305 3 gusting 10 17.2
2018-Dec-17 04:20 316 3 gusting 9 17.8
2018-Dec-17 03:50 284 1 gusting 9 18.3
2018-Dec-17 03:30 021 1 gusting 11 18.9
2018-Dec-17 03:25 163 1 gusting 11 18.3
2018-Dec-17 03:20 279 1 gusting 10 18.3
2018-Dec-17 03:10 061 2 gusting 11 17.8
2018-Dec-17 03:00 242 4 gusting 7 17.8
2018-Dec-17 02:45 219 3 gusting 6 17.8
2018-Dec-17 02:40 244 2 gusting 6 17.2
2018-Dec-17 02:35 270 1 gusting 6 17.2
2018-Dec-17 02:25 287 1 gusting 8 16.7
2018-Dec-17 02:20 283 3 gusting 8 16.7
2018-Dec-17 02:15 270 1 gusting 10 16.7
2018-Dec-17 02:10 252 6 gusting 13 16.7
2018-Dec-17 02:05 221 1 gusting 13 16.7
2018-Dec-17 02:00 202 1 gusting 6 16.1
2018-Dec-17 01:50 283 3 gusting 9 16.1
2018-Dec-17 01:45 249 1 gusting 9 15.6
2018-Dec-17 01:40 263 3 gusting 6 16.1
2018-Dec-17 01:35 279 1 gusting 6 15.6
2018-Dec-17 01:30 273 1 gusting 6 15.6
2018-Dec-17 01:25 261 1 gusting 6 15.0
2018-Dec-17 01:20 265 2 gusting 7 14.4
2018-Dec-17 01:15 278 1 gusting 7 13.9
2018-Dec-17 01:00 252 1 gusting 6 13.3
2018-Dec-17 00:50 273 2 gusting 7 12.2
2018-Dec-17 00:40 269 3 gusting 6 12.2
2018-Dec-17 00:35 278 2 gusting 8 11.7
2018-Dec-17 00:30 273 2 gusting 8 11.1
2018-Dec-17 00:25 273 1 gusting 6 11.1
2018-Dec-17 00:20 307 1 gusting 6 10.6
2018-Dec-17 00:05 289 2 gusting 6 9.4
2018-Dec-16 23:55 276 0 gusting 4 9.4
2018-Dec-16 23:50 274 1 gusting 3 9.4
2018-Dec-16 23:45 259 1 gusting 3 10.0
2018-Dec-16 23:15 255 8.9
2018-Dec-16 23:10 251 8.9
2018-Dec-16 23:05 245 0 gusting 1 8.9
2018-Dec-16 22:50 240 0 gusting 1 8.3
2018-Dec-16 22:45 241 8.3
2018-Dec-16 22:40 249 8.3
2018-Dec-16 22:35 269 0 gusting 1 8.3
2018-Dec-16 22:10 028 0 gusting 2 8.3
2018-Dec-16 22:05 027 0 gusting 2 8.3
2018-Dec-16 22:00 034 1 gusting 2 8.3
2018-Dec-16 21:55 034 8.9
2018-Dec-16 21:50 025 8.9
2018-Dec-16 21:40 031 1 gusting 4 8.9
2018-Dec-16 21:20 033 0 gusting 2 8.9
2018-Dec-16 21:15 016 8.9
2018-Dec-16 21:00 020 0 gusting 2 8.3
2018-Dec-16 20:45 046 8.3
2018-Dec-16 20:35 265 8.3
2018-Dec-16 20:30 320 0 gusting 1 8.3
2018-Dec-16 20:20 053 8.9
2018-Dec-16 20:15 047 8.3
2018-Dec-16 20:10 354 8.3
2018-Dec-16 20:05 001 8.3
2018-Dec-16 20:00 004 8.3
2018-Dec-16 19:55 010 0 gusting 3 8.3
2018-Dec-16 19:45 008 0 gusting 2 8.3
2018-Dec-16 19:40 043 1 gusting 2 8.3
2018-Dec-16 19:20 092 0 gusting 1 8.3
2018-Dec-16 19:15 101 0 gusting 3 8.3
2018-Dec-16 19:10 054 0 gusting 3 8.3
2018-Dec-16 19:05 046 8.3
2018-Dec-16 18:55 008 0 gusting 1 8.3
2018-Dec-16 18:50 026 8.3
2018-Dec-16 18:45 140 8.3
2018-Dec-16 18:40 077 8.3
2018-Dec-16 18:30 052 1 gusting 2 8.3
2018-Dec-16 18:25 004 8.3
2018-Dec-16 17:55 014 1 gusting 4 8.3
2018-Dec-16 17:35 295 0 gusting 4 8.3
2018-Dec-16 17:30 346 2 gusting 6 8.3
2018-Dec-16 17:25 354 1 gusting 6 8.3
2018-Dec-16 17:20 352 1 gusting 5 8.3
2018-Dec-16 17:10 029 1 gusting 3 8.3
2018-Dec-16 17:05 352 1 gusting 3 8.3
2018-Dec-16 17:00 206 8.3
2018-Dec-16 16:55 045 0 gusting 1 7.8
2018-Dec-16 16:50 004 0 gusting 1 7.8
2018-Dec-16 16:40 028 7.8
2018-Dec-16 16:30 318 7.8
2018-Dec-16 16:25 052 7.8
2018-Dec-16 16:20 050 7.8
2018-Dec-16 16:05 251 7.8
2018-Dec-16 15:50 254 1 gusting 2 8.3
2018-Dec-16 15:45 245 0 gusting 2 8.3
2018-Dec-16 15:40 258 0 gusting 2 8.3
2018-Dec-16 15:35 268 1 gusting 2 8.9
2018-Dec-16 15:30 270 0 gusting 1 8.9
2018-Dec-16 15:25 270 8.9
2018-Dec-16 15:20 260 0 gusting 1 8.9
2018-Dec-16 15:15 025 8.9
2018-Dec-16 15:10 049 8.9
2018-Dec-16 15:05 062 8.9
2018-Dec-16 15:00 055 0 gusting 2 8.3
2018-Dec-16 14:55 046 0 gusting 2 8.3
2018-Dec-16 14:50 046 0 gusting 1 8.3
2018-Dec-16 14:40 8.3
2018-Dec-16 14:35 8.3
2018-Dec-16 14:15 270 8.3
2018-Dec-16 14:10 270 8.3
2018-Dec-16 14:00 270 8.3
2018-Dec-16 13:45 263 8.3
2018-Dec-16 13:25 225 8.3
2018-Dec-16 13:20 225 8.3
2018-Dec-16 13:10 225 8.3
2018-Dec-16 13:05 8.3
2018-Dec-16 12:55 225 8.3
2018-Dec-16 12:50 234 8.3
2018-Dec-16 12:45 230 8.3
2018-Dec-16 12:40 227 8.3
2018-Dec-16 12:35 260 0 gusting 1 8.3
2018-Dec-16 12:25 225 8.3
2018-Dec-16 12:15 207 8.9
2018-Dec-16 12:05 8.9
2018-Dec-16 12:00 8.9
2018-Dec-16 11:55 135 8.9
2018-Dec-16 11:50 135 8.9
2018-Dec-16 11:45 135 8.9
2018-Dec-16 11:35 8.9
2018-Dec-16 11:25 8.9
2018-Dec-16 11:10 8.9
2018-Dec-16 11:05 8.9
2018-Dec-16 10:50 8.9
2018-Dec-16 10:45 8.9
2018-Dec-16 10:35 8.9
2018-Dec-16 10:20 8.9
2018-Dec-16 10:15 8.9
2018-Dec-16 10:10 225 8.9
2018-Dec-16 10:05 225 8.9
2018-Dec-16 10:00 179 8.9
2018-Dec-16 09:55 239 8.9
2018-Dec-16 09:50 248 8.9
2018-Dec-16 09:45 256 8.9
2018-Dec-16 09:35 252 9.4
2018-Dec-16 09:20 181 9.4
2018-Dec-16 09:15 233 9.4
2018-Dec-16 09:10 262 9.4
2018-Dec-16 09:05 157 10.0
2018-Dec-16 08:45 237 10.6
2018-Dec-16 08:40 270 10.6
2018-Dec-16 08:35 10.6
2018-Dec-16 08:30 10.6
2018-Dec-16 08:25 10.6
2018-Dec-16 08:00 090 11.1
2018-Dec-16 07:45 198 11.1
2018-Dec-16 07:25 204 11.7
2018-Dec-16 07:10 236 11.7
2018-Dec-16 07:05 200 0 gusting 1 12.2
2018-Dec-16 06:55 223 0 gusting 1 12.2
2018-Dec-16 06:45 099 12.2
2018-Dec-16 06:35 178 0 gusting 2 12.8
2018-Dec-16 06:25 236 12.8
2018-Dec-16 06:10 245 1 gusting 3 13.3
2018-Dec-16 06:05 246 0 gusting 3 13.3
2018-Dec-16 06:00 258 2 gusting 3 13.3
2018-Dec-16 05:40 260 1 gusting 5 13.3
2018-Dec-16 05:35 261 0 gusting 5 13.9
2018-Dec-16 05:25 265 1 gusting 3 14.4
2018-Dec-16 05:15 280 14.4
2018-Dec-16 05:10 273 1 gusting 3 15.0
2018-Dec-16 05:05 269 15.0
2018-Dec-16 04:30 245 1 gusting 3 16.7
2018-Dec-16 04:25 252 0 gusting 3 17.2
2018-Dec-16 04:20 062 17.8
2018-Dec-16 04:15 089 17.2
2018-Dec-16 04:10 025 0 gusting 3 17.2
2018-Dec-16 04:05 298 1 gusting 3 17.8
2018-Dec-16 04:00 256 0 gusting 3 17.8
2018-Dec-16 03:55 232 1 gusting 3 17.8
2018-Dec-16 03:40 277 1 gusting 4 17.2
2018-Dec-16 03:35 308 0 gusting 3 18.3
2018-Dec-16 03:30 321 0 gusting 3 18.3
2018-Dec-16 03:25 321 17.8
2018-Dec-16 03:20 313 1 gusting 3 17.8
2018-Dec-16 03:00 321 0 gusting 4 15.6
2018-Dec-16 02:55 322 1 gusting 4 15.6
2018-Dec-16 02:35 275 0 gusting 3 16.1
2018-Dec-16 02:25 320 14.4
2018-Dec-16 02:20 266 0 gusting 3 14.4
2018-Dec-16 02:15 260 0 gusting 5 13.3
2018-Dec-16 02:10 272 2 gusting 5 12.8
2018-Dec-16 01:50 261 10.6
2018-Dec-16 01:40 269 0 gusting 4 11.1
2018-Dec-16 01:35 260 1 gusting 4 11.1
2018-Dec-16 01:30 262 1 gusting 5 11.7
2018-Dec-16 01:25 278 1 gusting 5 11.1
2018-Dec-16 01:20 280 0 gusting 4 11.1
2018-Dec-16 01:05 251 1 gusting 4 11.7
2018-Dec-16 01:00 257 1 gusting 4 11.7
2018-Dec-16 00:55 269 3 gusting 4 12.2
2018-Dec-16 00:45 217 1 gusting 3 12.8
2018-Dec-16 00:35 267 0 gusting 3 12.8
2018-Dec-16 00:25 023 12.8
2018-Dec-16 00:20 046 1 gusting 1 12.8
2018-Dec-16 00:15 074 12.2
2018-Dec-16 00:05 054 0 gusting 1 10.6
2018-Dec-15 23:55 088 9.4
2018-Dec-15 23:50 114 8.3
2018-Dec-15 23:40 248 7.2
2018-Dec-15 23:25 227 5.0
2018-Dec-15 23:15 236 4.4
2018-Dec-15 23:10 243 4.4
2018-Dec-15 23:00 254 0 gusting 3 4.4
2018-Dec-15 22:50 256 1 gusting 2 3.3
2018-Dec-15 22:45 257 3.3
2018-Dec-15 22:40 246 1 gusting 3 3.3
2018-Dec-15 22:15 213 2.2
2018-Dec-15 22:10 227 0 gusting 2 2.2
2018-Dec-15 22:05 253 1 gusting 3 2.2
2018-Dec-15 22:00 251 0 gusting 3 2.2
2018-Dec-15 21:50 229 1 gusting 4 2.2
2018-Dec-15 21:45 224 1 gusting 4 2.2
2018-Dec-15 21:40 237 1 gusting 3 2.2
2018-Dec-15 21:35 243 1 gusting 3 2.2
2018-Dec-15 21:25 227 1 gusting 3 2.2
2018-Dec-15 21:20 245 0 gusting 3 2.2
2018-Dec-15 21:15 237 0 gusting 2 2.2
2018-Dec-15 21:10 233 0 gusting 2 2.2
2018-Dec-15 20:50 247 0 gusting 3 1.7
2018-Dec-15 20:40 242 1 gusting 3 1.7
2018-Dec-15 20:35 235 1 gusting 3 1.7
2018-Dec-15 20:25 231 1 gusting 2 1.7
2018-Dec-15 20:20 232 1 gusting 4 1.7
2018-Dec-15 20:10 257 0 gusting 3 1.7
2018-Dec-15 20:05 253 1 gusting 3 1.7
2018-Dec-15 20:00 260 1.7
2018-Dec-15 19:50 270 1.7
2018-Dec-15 19:35 270 2.2
2018-Dec-15 19:30 265 2.2
2018-Dec-15 19:25 225 2.2
2018-Dec-15 19:20 225 2.2
2018-Dec-15 19:10 266 2.8
2018-Dec-15 19:05 252 2.8
2018-Dec-15 18:55 243 2.8
2018-Dec-15 18:45 251 2.8
2018-Dec-15 18:35 185 2.8
2018-Dec-15 18:30 225 3.3
2018-Dec-15 18:25 248 3.3